Time,TemperatureF,DewpointF,PressureIn,WindDirection,WindDirectionDegrees,WindSpeedMPH,WindSpeedGustMPH,Humidity,HourlyPrecipIn,Conditions,Clouds,dailyrainin,SolarRadiationWatts/m^2,SoftwareType,DateUTC
2013-01-01 00:03:00,46.0,37.0,30.48,SE,140,4.0,9.0,70,0.00,,,0.00,0.000000,,2013-01-01 05:03:00,
2013-01-01 00:12:00,46.0,37.0,30.48,SE,140,4.0,9.0,70,0.00,,,0.00,0.000000,,2013-01-01 05:12:00,
2013-01-01 00:33:00,47.0,35.0,30.45,WNW,285,5.0,11.0,64,0.00,,,0.00,0.000000,,2013-01-01 05:33:00,
2013-01-01 00:42:00,47.0,35.0,30.45,WNW,285,5.0,11.0,64,0.00,,,0.00,0.000000,,2013-01-01 05:42:00,
2013-01-01 00:53:00,47.0,35.0,30.45,WNW,285,5.0,11.0,64,0.00,,,0.00,0.000000,,2013-01-01 05:53:00,
2013-01-01 01:02:00,47.0,35.0,30.45,WNW,285,5.0,11.0,64,0.00,,,0.00,0.000000,,2013-01-01 06:02:00,
2013-01-01 01:12:00,47.0,35.0,30.45,WNW,285,5.0,11.0,64,0.00,,,0.00,0.000000,,2013-01-01 06:12:00,
2013-01-01 01:33:00,47.0,36.0,30.43,West,273,5.0,11.0,65,0.00,,,0.00,0.000000,,2013-01-01 06:33:00,
2013-01-01 01:43:00,47.0,36.0,30.43,West,273,5.0,11.0,65,0.00,,,0.00,0.000000,,2013-01-01 06:43:00,
2013-01-01 01:52:00,47.0,36.0,30.43,West,273,5.0,11.0,65,0.00,,,0.00,0.000000,,2013-01-01 06:52:00,
2013-01-01 02:02:00,47.0,36.0,30.43,West,273,5.0,11.0,65,0.00,,,0.00,0.000000,,2013-01-01 07:02:00,
2013-01-01 02:12:00,47.0,36.0,30.43,West,273,5.0,11.0,65,0.00,,,0.00,0.000000,,2013-01-01 07:12:00,
2013-01-01 02:32:00,46.0,38.0,30.40,WSW,251,2.0,10.0,73,0.00,,,0.00,0.000000,,2013-01-01 07:32:00,
2013-01-01 02:42:00,46.0,38.0,30.40,WSW,251,2.0,10.0,73,0.00,,,0.00,0.000000,,2013-01-01 07:42:00,
2013-01-01 02:53:00,46.0,38.0,30.40,WSW,251,2.0,10.0,73,0.00,,,0.00,0.000000,,2013-01-01 07:53:00,
2013-01-01 03:02:00,46.0,38.0,30.40,WSW,251,2.0,10.0,73,0.00,,,0.00,0.000000,,2013-01-01 08:02:00,
2013-01-01 03:12:00,46.0,38.0,30.40,WSW,251,2.0,10.0,73,0.00,,,0.00,0.000000,,2013-01-01 08:12:00,
2013-01-01 03:42:00,45.0,40.0,30.40,West,259,2.0,7.0,83,0.00,,,0.00,0.000000,,2013-01-01 08:42:00,
2013-01-01 03:53:00,45.0,40.0,30.40,West,259,2.0,7.0,83,0.00,,,0.00,0.000000,,2013-01-01 08:53:00,
2013-01-01 04:02:00,45.0,40.0,30.40,West,259,2.0,7.0,83,0.00,,,0.00,0.000000,,2013-01-01 09:02:00,
2013-01-01 04:12:00,45.0,40.0,30.40,West,259,2.0,7.0,83,0.00,,,0.00,0.000000,,2013-01-01 09:12:00,
2013-01-01 04:32:00,46.0,41.0,30.39,West,277,2.0,6.0,81,0.00,,,0.00,0.000000,,2013-01-01 09:32:00,
2013-01-01 04:42:00,46.0,41.0,30.39,West,277,2.0,6.0,81,0.00,,,0.00,0.000000,,2013-01-01 09:42:00,
2013-01-01 04:52:00,46.0,41.0,30.39,West,277,2.0,6.0,81,0.00,,,0.00,0.000000,,2013-01-01 09:52:00,
2013-01-01 05:02:00,46.0,41.0,30.39,West,277,2.0,6.0,81,0.00,,,0.00,0.000000,,2013-01-01 10:02:00,
2013-01-01 05:12:00,46.0,41.0,30.39,West,277,2.0,6.0,81,0.00,,,0.00,0.000000,,2013-01-01 10:12:00,
2013-01-01 05:33:00,46.0,41.0,30.38,West,275,3.0,9.0,81,0.00,,,0.00,0.000000,,2013-01-01 10:33:00,
2013-01-01 05:43:00,46.0,41.0,30.38,West,275,3.0,9.0,81,0.00,,,0.00,0.000000,,2013-01-01 10:43:00,
2013-01-01 05:53:00,46.0,41.0,30.38,West,275,3.0,9.0,81,0.00,,,0.00,0.000000,,2013-01-01 10:53:00,
2013-01-01 06:02:00,46.0,41.0,30.38,West,275,3.0,9.0,81,0.00,,,0.00,0.000000,,2013-01-01 11:02:00,
2013-01-01 06:12:00,46.0,41.0,30.38,West,275,3.0,9.0,81,0.00,,,0.00,0.000000,,2013-01-01 11:12:00,
2013-01-01 06:33:00,49.0,43.0,30.39,WNW,285,3.0,10.0,79,0.00,,,-99.99,0.000000,,2013-01-01 11:33:00,
2013-01-01 06:43:00,49.0,43.0,30.39,WNW,285,3.0,10.0,79,0.00,,,-99.99,0.000000,,2013-01-01 11:43:00,
2013-01-01 06:53:00,49.0,43.0,30.39,WNW,285,3.0,10.0,79,0.00,,,-99.99,0.000000,,2013-01-01 11:53:00,
2013-01-01 07:03:00,49.0,43.0,30.39,WNW,285,3.0,10.0,79,0.00,,,-99.99,0.000000,,2013-01-01 12:03:00,
2013-01-01 07:12:00,49.0,43.0,30.39,WNW,285,3.0,10.0,79,0.00,,,-99.99,0.000000,,2013-01-01 12:12:00,
2013-01-01 07:43:00,49.0,43.0,30.40,West,273,2.0,9.0,80,0.00,,,0.00,0.000000,,2013-01-01 12:43:00,
2013-01-01 07:53:00,49.0,43.0,30.40,West,273,2.0,9.0,80,0.00,,,0.00,0.000000,,2013-01-01 12:53:00,
2013-01-01 08:03:00,49.0,43.0,30.40,West,273,2.0,9.0,80,0.00,,,0.00,0.000000,,2013-01-01 13:03:00,
2013-01-01 08:12:00,49.0,43.0,30.40,West,273,2.0,9.0,80,0.00,,,0.00,0.000000,,2013-01-01 13:12:00,
2013-01-01 08:33:00,49.0,44.0,30.42,ESE,104,2.0,7.0,82,0.00,,,0.00,14.000000,,2013-01-01 13:33:00,
2013-01-01 08:43:00,49.0,44.0,30.42,ESE,104,2.0,7.0,82,0.00,,,0.00,14.000000,,2013-01-01 13:43:00,
2013-01-01 08:53:00,49.0,44.0,30.42,ESE,104,2.0,7.0,82,0.00,,,0.00,14.000000,,2013-01-01 13:53:00,
2013-01-01 09:02:00,49.0,44.0,30.42,ESE,104,2.0,7.0,82,0.00,,,0.00,14.000000,,2013-01-01 14:02:00,
2013-01-01 09:12:00,49.0,44.0,30.42,ESE,104,2.0,7.0,82,0.00,,,0.00,14.000000,,2013-01-01 14:12:00,
2013-01-01 09:43:00,51.0,44.0,30.43,WNW,282,4.0,10.0,77,0.00,,,0.00,65.000000,,2013-01-01 14:43:00,
2013-01-01 09:53:00,51.0,44.0,30.43,WNW,282,4.0,10.0,77,0.00,,,0.00,65.000000,,2013-01-01 14:53:00,
2013-01-01 10:03:00,51.0,44.0,30.43,WNW,282,4.0,10.0,77,0.00,,,0.00,65.000000,,2013-01-01 15:03:00,
2013-01-01 10:12:00,51.0,44.0,30.43,WNW,282,4.0,10.0,77,0.00,,,0.00,65.000000,,2013-01-01 15:12:00,
2013-01-01 10:33:00,50.0,43.0,30.45,WNW,287,2.0,9.0,77,0.00,,,0.00,45.000000,,2013-01-01 15:33:00,
2013-01-01 10:43:00,50.0,43.0,30.45,WNW,287,2.0,9.0,77,0.00,,,0.00,45.000000,,2013-01-01 15:43:00,
2013-01-01 10:53:00,50.0,43.0,30.45,WNW,287,2.0,9.0,77,0.00,,,0.00,45.000000,,2013-01-01 15:53:00,
2013-01-01 11:02:00,50.0,43.0,30.45,WNW,287,2.0,9.0,77,0.00,,,0.00,45.000000,,2013-01-01 16:02:00,
2013-01-01 11:12:00,50.0,43.0,30.45,WNW,287,2.0,9.0,77,0.00,,,0.00,45.000000,,2013-01-01 16:12:00,
2013-01-01 11:33:00,52.0,45.0,30.41,WSW,258,4.0,12.0,78,0.00,,,0.00,49.000000,,2013-01-01 16:33:00,
2013-01-01 11:43:00,52.0,45.0,30.41,WSW,258,4.0,12.0,78,0.00,,,0.00,49.000000,,2013-01-01 16:43:00,
2013-01-01 11:53:00,52.0,45.0,30.41,WSW,258,4.0,12.0,78,0.00,,,0.00,49.000000,,2013-01-01 16:53:00,
2013-01-01 12:02:00,52.0,45.0,30.41,WSW,258,4.0,12.0,78,0.00,,,0.00,49.000000,,2013-01-01 17:02:00,
2013-01-01 12:12:00,52.0,45.0,30.41,WSW,258,4.0,12.0,78,0.00,,,0.00,49.000000,,2013-01-01 17:12:00,
2013-01-01 12:33:00,49.0,46.0,30.38,West,264,5.0,11.0,88,0.00,,,0.00,37.000000,,2013-01-01 17:33:00,
2013-01-01 12:43:00,49.0,46.0,30.38,West,264,5.0,11.0,88,0.00,,,0.00,37.000000,,2013-01-01 17:43:00,
2013-01-01 12:53:00,49.0,46.0,30.38,West,264,5.0,11.0,88,0.00,,,0.00,37.000000,,2013-01-01 17:53:00,
2013-01-01 13:03:00,49.0,46.0,30.38,West,264,5.0,11.0,88,0.00,,,0.00,37.000000,,2013-01-01 18:03:00,
2013-01-01 13:13:00,49.0,46.0,30.38,West,264,5.0,11.0,88,0.00,,,0.00,37.000000,,2013-01-01 18:13:00,
2013-01-01 13:33:00,52.0,49.0,30.33,WSW,237,5.0,19.0,90,0.00,,,0.00,192.000000,,2013-01-01 18:33:00,
2013-01-01 13:43:00,52.0,49.0,30.33,WSW,237,5.0,19.0,90,0.00,,,0.00,192.000000,,2013-01-01 18:43:00,
2013-01-01 13:53:00,52.0,49.0,30.33,WSW,237,5.0,19.0,90,0.00,,,0.00,192.000000,,2013-01-01 18:53:00,
2013-01-01 14:02:00,52.0,49.0,30.33,WSW,237,5.0,19.0,90,0.00,,,0.00,192.000000,,2013-01-01 19:02:00,
2013-01-01 14:12:00,52.0,49.0,30.33,WSW,237,5.0,19.0,90,0.00,,,0.00,192.000000,,2013-01-01 19:12:00,
2013-01-01 14:33:00,52.0,50.0,30.33,WNW,302,6.0,16.0,92,0.00,,,0.00,133.000000,,2013-01-01 19:33:00,
2013-01-01 14:43:00,52.0,50.0,30.33,WNW,302,6.0,16.0,92,0.00,,,0.00,133.000000,,2013-01-01 19:43:00,
2013-01-01 14:53:00,52.0,50.0,30.33,WNW,302,6.0,16.0,92,0.00,,,0.00,133.000000,,2013-01-01 19:53:00,
2013-01-01 15:02:00,52.0,50.0,30.33,WNW,302,6.0,16.0,92,0.00,,,0.00,133.000000,,2013-01-01 20:02:00,
2013-01-01 15:13:00,52.0,50.0,30.33,WNW,302,6.0,16.0,92,0.00,,,0.00,133.000000,,2013-01-01 20:13:00,
2013-01-01 15:43:00,52.0,50.0,30.33,WNW,292,6.0,14.0,93,0.00,,,0.00,71.000000,,2013-01-01 20:43:00,
2013-01-01 15:53:00,52.0,50.0,30.33,WNW,292,6.0,14.0,93,0.00,,,0.00,71.000000,,2013-01-01 20:53:00,
2013-01-01 16:03:00,52.0,50.0,30.33,WNW,292,6.0,14.0,93,0.00,,,0.00,71.000000,,2013-01-01 21:03:00,
2013-01-01 16:13:00,52.0,50.0,30.33,WNW,292,6.0,14.0,93,0.00,,,0.00,71.000000,,2013-01-01 21:13:00,
2013-01-01 16:33:00,53.0,52.0,30.30,WNW,284,4.0,17.0,95,0.00,,,0.00,48.000000,,2013-01-01 21:33:00,
2013-01-01 16:43:00,53.0,52.0,30.30,WNW,284,4.0,17.0,95,0.00,,,0.00,48.000000,,2013-01-01 21:43:00,
2013-01-01 16:53:00,53.0,52.0,30.30,WNW,284,4.0,17.0,95,0.00,,,0.00,48.000000,,2013-01-01 21:53:00,
2013-01-01 17:03:00,53.0,52.0,30.30,WNW,284,4.0,17.0,95,0.00,,,0.00,48.000000,,2013-01-01 22:03:00,
2013-01-01 17:12:00,53.0,52.0,30.30,WNW,284,4.0,17.0,95,0.00,,,0.00,48.000000,,2013-01-01 22:12:00,
2013-01-01 17:33:00,51.0,51.0,30.32,West,269,5.0,11.0,99,0.01,,,0.01,11.000000,,2013-01-01 22:33:00,
2013-01-01 17:43:00,51.0,51.0,30.32,West,269,5.0,11.0,99,0.01,,,0.01,11.000000,,2013-01-01 22:43:00,
2013-01-01 17:53:00,51.0,51.0,30.32,West,269,5.0,11.0,99,0.01,,,0.01,11.000000,,2013-01-01 22:53:00,
2013-01-01 18:03:00,51.0,51.0,30.32,West,269,5.0,11.0,99,0.01,,,0.01,11.000000,,2013-01-01 23:03:00,
2013-01-01 18:12:00,51.0,51.0,30.32,West,269,5.0,11.0,99,0.01,,,0.01,11.000000,,2013-01-01 23:12:00,
2013-01-01 18:33:00,52.0,52.0,30.34,West,281,6.0,12.0,100,0.08,,,0.09,0.000000,,2013-01-01 23:33:00,
2013-01-01 18:42:00,52.0,52.0,30.34,West,281,6.0,12.0,100,0.08,,,0.09,0.000000,,2013-01-01 23:42:00,
2013-01-01 18:53:00,52.0,52.0,30.34,West,281,6.0,12.0,100,0.08,,,0.09,0.000000,,2013-01-01 23:53:00,
2013-01-01 19:03:00,52.0,52.0,30.34,West,281,6.0,12.0,100,0.08,,,0.09,0.000000,,2013-01-02 00:03:00,
2013-01-01 19:12:00,52.0,52.0,30.34,West,281,6.0,12.0,100,0.08,,,0.09,0.000000,,2013-01-02 00:12:00,
2013-01-01 19:33:00,52.0,52.0,30.32,West,267,5.0,15.0,100,0.05,,,0.14,0.000000,,2013-01-02 00:33:00,
2013-01-01 19:43:00,52.0,52.0,30.32,West,267,5.0,15.0,100,0.05,,,0.14,0.000000,,2013-01-02 00:43:00,
2013-01-01 19:53:00,52.0,52.0,30.32,West,267,5.0,15.0,100,0.05,,,0.14,0.000000,,2013-01-02 00:53:00,
2013-01-01 20:02:00,52.0,52.0,30.32,West,267,5.0,15.0,100,0.05,,,0.14,0.000000,,2013-01-02 01:02:00,
2013-01-01 20:12:00,52.0,52.0,30.32,West,267,5.0,15.0,100,0.05,,,0.14,0.000000,,2013-01-02 01:12:00,
2013-01-01 20:42:00,52.0,52.0,30.31,WNW,286,2.0,10.0,100,0.01,,,0.15,0.000000,,2013-01-02 01:42:00,
2013-01-01 20:53:00,52.0,52.0,30.31,WNW,286,2.0,10.0,100,0.01,,,0.15,0.000000,,2013-01-02 01:53:00,
2013-01-01 21:02:00,52.0,52.0,30.31,WNW,286,2.0,10.0,100,0.01,,,0.15,0.000000,,2013-01-02 02:02:00,
2013-01-01 21:12:00,52.0,52.0,30.31,WNW,286,2.0,10.0,100,0.01,,,0.15,0.000000,,2013-01-02 02:12:00,
2013-01-01 21:32:00,52.0,52.0,30.30,West,280,1.0,5.0,100,0.00,,,0.15,0.000000,,2013-01-02 02:32:00,
2013-01-01 21:43:00,52.0,52.0,30.30,West,280,1.0,5.0,100,0.00,,,0.15,0.000000,,2013-01-02 02:43:00,
2013-01-01 21:53:00,52.0,52.0,30.30,West,280,1.0,5.0,100,0.00,,,0.15,0.000000,,2013-01-02 02:53:00,
2013-01-01 22:02:00,52.0,52.0,30.30,West,280,1.0,5.0,100,0.00,,,0.15,0.000000,,2013-01-02 03:02:00,
2013-01-01 22:12:00,52.0,52.0,30.30,West,280,1.0,5.0,100,0.00,,,0.15,0.000000,,2013-01-02 03:12:00,
2013-01-01 22:42:00,50.0,50.0,30.30,ENE,61,1.0,5.0,100,0.02,,,0.17,0.000000,,2013-01-02 03:42:00,
2013-01-01 22:53:00,50.0,50.0,30.30,ENE,61,1.0,5.0,100,0.02,,,0.17,0.000000,,2013-01-02 03:53:00,
2013-01-01 23:03:00,50.0,50.0,30.30,ENE,61,1.0,5.0,100,0.02,,,0.17,0.000000,,2013-01-02 04:03:00,
2013-01-01 23:12:00,50.0,50.0,30.30,ENE,61,1.0,5.0,100,0.02,,,0.17,0.000000,,2013-01-02 04:12:00,
2013-01-01 23:33:00,50.0,50.0,30.28,ENE,63,1.0,4.0,100,0.00,,,0.17,0.000000,,2013-01-02 04:33:00,
2013-01-01 23:42:00,50.0,50.0,30.28,ENE,63,1.0,4.0,100,0.00,,,0.17,0.000000,,2013-01-02 04:42:00,
2013-01-01 23:53:00,50.0,50.0,30.28,ENE,63,1.0,4.0,100,0.00,,,0.17,0.000000,,2013-01-02 04:53:00,